Time,TemperatureF,DewpointF,PressureIn,WindDirection,WindDirectionDegrees,WindSpeedMPH,WindSpeedGustMPH,Humidity,HourlyPrecipIn,Conditions,Clouds,dailyrainin,SolarRadiationWatts/m^2,SoftwareType,DateUTC
2013-03-05 00:02:00,29.0,20.0,-100.00,NNE,27,3.0,7.0,68,0.00,,,0.00,0.000000,,2013-03-05 05:02:00,
2013-03-05 00:32:00,31.0,20.0,-100.00,ESE,116,3.0,10.0,64,0.00,,,0.00,0.000000,,2013-03-05 05:32:00,
2013-03-05 00:42:00,31.0,20.0,-100.00,ESE,116,3.0,10.0,64,0.00,,,0.00,0.000000,,2013-03-05 05:42:00,
2013-03-05 00:52:00,31.0,20.0,-100.00,ESE,116,3.0,10.0,64,0.00,,,0.00,0.000000,,2013-03-05 05:52:00,
2013-03-05 01:01:00,31.0,20.0,-100.00,ESE,116,3.0,10.0,64,0.00,,,0.00,0.000000,,2013-03-05 06:01:00,
2013-03-05 01:32:00,29.0,20.0,-100.00,ENE,71,3.0,9.0,69,0.00,,,0.00,0.000000,,2013-03-05 06:32:00,
2013-03-05 01:42:00,29.0,20.0,-100.00,ENE,71,3.0,9.0,69,0.00,,,0.00,0.000000,,2013-03-05 06:42:00,
2013-03-05 01:52:00,29.0,20.0,-100.00,ENE,71,3.0,9.0,69,0.00,,,0.00,0.000000,,2013-03-05 06:52:00,
2013-03-05 02:01:00,29.0,20.0,-100.00,ENE,71,3.0,9.0,69,0.00,,,0.00,0.000000,,2013-03-05 07:01:00,
2013-03-05 02:32:00,31.0,21.0,-100.00,NE,42,3.0,9.0,66,0.00,,,0.00,0.000000,,2013-03-05 07:32:00,
2013-03-05 02:42:00,31.0,21.0,-100.00,NE,42,3.0,9.0,66,0.00,,,0.00,0.000000,,2013-03-05 07:42:00,
2013-03-05 02:52:00,31.0,21.0,-100.00,NE,42,3.0,9.0,66,0.00,,,0.00,0.000000,,2013-03-05 07:52:00,
2013-03-05 03:02:00,31.0,21.0,-100.00,NE,42,3.0,9.0,66,0.00,,,0.00,0.000000,,2013-03-05 08:02:00,
2013-03-05 04:32:00,33.0,21.0,-100.00,NW,307,4.0,8.0,62,-99.99,,,0.00,0.000000,,2013-03-05 09:32:00,
2013-03-05 04:43:00,33.0,21.0,-100.00,NW,307,4.0,8.0,62,-99.99,,,0.00,0.000000,,2013-03-05 09:43:00,
2013-03-05 04:52:00,33.0,21.0,-100.00,NW,307,4.0,8.0,62,-99.99,,,0.00,0.000000,,2013-03-05 09:52:00,
2013-03-05 05:01:00,33.0,21.0,-100.00,NW,307,4.0,8.0,62,-99.99,,,0.00,0.000000,,2013-03-05 10:01:00,
2013-03-05 05:32:00,31.0,23.0,-100.00,ESE,117,2.0,4.0,71,0.00,,,0.00,0.000000,,2013-03-05 10:32:00,
2013-03-05 05:42:00,31.0,23.0,-100.00,ESE,117,2.0,4.0,71,0.00,,,0.00,0.000000,,2013-03-05 10:42:00,
2013-03-05 05:52:00,31.0,23.0,-100.00,ESE,117,2.0,4.0,71,0.00,,,0.00,0.000000,,2013-03-05 10:52:00,
2013-03-05 06:02:00,31.0,23.0,-100.00,ESE,117,2.0,4.0,71,0.00,,,0.00,0.000000,,2013-03-05 11:02:00,
2013-03-05 06:32:00,31.0,24.0,-100.00,ENE,71,2.0,7.0,75,0.00,,,0.00,0.000000,,2013-03-05 11:32:00,
2013-03-05 06:42:00,31.0,24.0,-100.00,ENE,71,2.0,7.0,75,0.00,,,0.00,0.000000,,2013-03-05 11:42:00,
2013-03-05 06:52:00,31.0,24.0,-100.00,ENE,71,2.0,7.0,75,0.00,,,0.00,0.000000,,2013-03-05 11:52:00,
2013-03-05 07:02:00,31.0,24.0,-100.00,ENE,71,2.0,7.0,75,0.00,,,0.00,0.000000,,2013-03-05 12:02:00,
2013-03-05 07:32:00,31.0,24.0,-100.00,South,170,1.0,4.0,76,0.00,,,0.00,11.000000,,2013-03-05 12:32:00,
2013-03-05 07:42:00,31.0,24.0,-100.00,South,170,1.0,4.0,76,0.00,,,0.00,11.000000,,2013-03-05 12:42:00,
2013-03-05 07:53:00,31.0,24.0,-100.00,South,170,1.0,4.0,76,0.00,,,0.00,11.000000,,2013-03-05 12:53:00,
2013-03-05 08:02:00,31.0,24.0,-100.00,South,170,1.0,4.0,76,0.00,,,0.00,11.000000,,2013-03-05 13:02:00,
2013-03-05 08:32:00,35.0,24.0,-100.00,NE,53,4.0,9.0,63,0.00,,,0.00,56.000000,,2013-03-05 13:32:00,
2013-03-05 08:42:00,35.0,24.0,-100.00,NE,53,4.0,9.0,63,0.00,,,0.00,56.000000,,2013-03-05 13:42:00,
2013-03-05 08:52:00,35.0,24.0,-100.00,NE,53,4.0,9.0,63,0.00,,,0.00,56.000000,,2013-03-05 13:52:00,
2013-03-05 09:02:00,35.0,24.0,-100.00,NE,53,4.0,9.0,63,0.00,,,0.00,56.000000,,2013-03-05 14:02:00,
2013-03-05 09:32:00,38.0,24.0,-100.00,NE,56,4.0,10.0,56,0.00,,,0.00,120.000000,,2013-03-05 14:32:00,
2013-03-05 09:42:00,38.0,24.0,-100.00,NE,56,4.0,10.0,56,0.00,,,0.00,120.000000,,2013-03-05 14:42:00,
2013-03-05 09:52:00,38.0,24.0,-100.00,NE,56,4.0,10.0,56,0.00,,,0.00,120.000000,,2013-03-05 14:52:00,
2013-03-05 10:02:00,38.0,24.0,-100.00,NE,56,4.0,10.0,56,0.00,,,0.00,120.000000,,2013-03-05 15:02:00,
2013-03-05 10:32:00,42.0,26.0,-100.00,NE,46,4.0,9.0,52,0.00,,,0.00,214.000000,,2013-03-05 15:32:00,
2013-03-05 10:42:00,42.0,26.0,-100.00,NE,46,4.0,9.0,52,0.00,,,0.00,214.000000,,2013-03-05 15:42:00,
2013-03-05 10:52:00,42.0,26.0,-100.00,NE,46,4.0,9.0,52,0.00,,,0.00,214.000000,,2013-03-05 15:52:00,
2013-03-05 11:02:00,42.0,26.0,-100.00,NE,46,4.0,9.0,52,0.00,,,0.00,214.000000,,2013-03-05 16:02:00,
2013-03-05 11:32:00,45.0,27.0,-100.00,NE,48,6.0,13.0,49,0.00,,,0.00,323.000000,,2013-03-05 16:32:00,
2013-03-05 11:42:00,45.0,27.0,-100.00,NE,48,6.0,13.0,49,0.00,,,0.00,323.000000,,2013-03-05 16:42:00,
2013-03-05 11:52:00,45.0,27.0,-100.00,NE,48,6.0,13.0,49,0.00,,,0.00,323.000000,,2013-03-05 16:52:00,
2013-03-05 12:01:00,45.0,27.0,-100.00,NE,48,6.0,13.0,49,0.00,,,0.00,323.000000,,2013-03-05 17:01:00,
2013-03-05 12:32:00,44.0,26.0,-100.00,NE,51,4.0,12.0,49,0.00,,,0.00,336.000000,,2013-03-05 17:32:00,
2013-03-05 12:42:00,44.0,26.0,-100.00,NE,51,4.0,12.0,49,0.00,,,0.00,336.000000,,2013-03-05 17:42:00,
2013-03-05 12:53:00,44.0,26.0,-100.00,NE,51,4.0,12.0,49,0.00,,,0.00,336.000000,,2013-03-05 17:53:00,
2013-03-05 13:02:00,44.0,26.0,-100.00,NE,51,4.0,12.0,49,0.00,,,0.00,336.000000,,2013-03-05 18:02:00,
2013-03-05 13:32:00,44.0,27.0,-100.00,NE,46,6.0,14.0,50,0.00,,,-99.99,309.000000,,2013-03-05 18:32:00,
2013-03-05 13:42:00,44.0,27.0,-100.00,NE,46,6.0,14.0,50,0.00,,,-99.99,309.000000,,2013-03-05 18:42:00,
2013-03-05 13:53:00,44.0,27.0,-100.00,NE,46,6.0,14.0,50,0.00,,,-99.99,309.000000,,2013-03-05 18:53:00,
2013-03-05 14:01:00,44.0,27.0,-100.00,NE,46,6.0,14.0,50,0.00,,,-99.99,309.000000,,2013-03-05 19:01:00,
2013-03-05 14:32:00,44.0,26.0,-100.00,NE,49,7.0,13.0,49,0.00,,,0.00,360.000000,,2013-03-05 19:32:00,
2013-03-05 14:42:00,44.0,26.0,-100.00,NE,49,7.0,13.0,49,0.00,,,0.00,360.000000,,2013-03-05 19:42:00,
2013-03-05 14:52:00,44.0,26.0,-100.00,NE,49,7.0,13.0,49,0.00,,,0.00,360.000000,,2013-03-05 19:52:00,
2013-03-05 15:01:00,44.0,26.0,-100.00,NE,49,7.0,13.0,49,0.00,,,0.00,360.000000,,2013-03-05 20:01:00,
2013-03-05 15:32:00,42.0,27.0,-100.00,NE,46,5.0,12.0,55,0.00,,,0.00,199.000000,,2013-03-05 20:32:00,
2013-03-05 15:42:00,42.0,27.0,-100.00,NE,46,5.0,12.0,55,0.00,,,0.00,199.000000,,2013-03-05 20:42:00,
2013-03-05 15:52:00,42.0,27.0,-100.00,NE,46,5.0,12.0,55,0.00,,,0.00,199.000000,,2013-03-05 20:52:00,
2013-03-05 16:02:00,42.0,27.0,-100.00,NE,46,5.0,12.0,55,0.00,,,0.00,199.000000,,2013-03-05 21:02:00,
2013-03-05 16:32:00,41.0,27.0,-100.00,NNE,31,3.0,11.0,56,0.00,,,0.00,138.000000,,2013-03-05 21:32:00,
2013-03-05 16:42:00,41.0,27.0,-100.00,NNE,31,3.0,11.0,56,0.00,,,0.00,138.000000,,2013-03-05 21:42:00,
2013-03-05 16:52:00,41.0,27.0,-100.00,NNE,31,3.0,11.0,56,0.00,,,0.00,138.000000,,2013-03-05 21:52:00,
2013-03-05 17:01:00,41.0,27.0,-100.00,NNE,31,3.0,11.0,56,0.00,,,0.00,138.000000,,2013-03-05 22:01:00,
2013-03-05 17:32:00,40.0,26.0,-100.00,NNE,31,3.0,9.0,57,0.00,,,0.00,31.000000,,2013-03-05 22:32:00,
2013-03-05 17:42:00,40.0,26.0,-100.00,NNE,31,3.0,9.0,57,0.00,,,0.00,31.000000,,2013-03-05 22:42:00,
2013-03-05 17:52:00,40.0,26.0,-100.00,NNE,31,3.0,9.0,57,0.00,,,0.00,31.000000,,2013-03-05 22:52:00,
2013-03-05 18:01:00,40.0,26.0,-100.00,NNE,31,3.0,9.0,57,0.00,,,0.00,31.000000,,2013-03-05 23:01:00,
2013-03-05 18:32:00,37.0,26.0,-100.00,NNE,32,2.0,5.0,65,0.00,,,0.00,8.000000,,2013-03-05 23:32:00,
2013-03-05 18:42:00,37.0,26.0,-100.00,NNE,32,2.0,5.0,65,0.00,,,0.00,8.000000,,2013-03-05 23:42:00,
2013-03-05 18:53:00,37.0,26.0,-100.00,NNE,32,2.0,5.0,65,0.00,,,0.00,8.000000,,2013-03-05 23:53:00,
2013-03-05 19:02:00,37.0,26.0,-100.00,NNE,32,2.0,5.0,65,0.00,,,0.00,8.000000,,2013-03-06 00:02:00,
2013-03-05 19:32:00,35.0,28.0,-100.00,NE,54,2.0,5.0,74,0.00,,,0.00,0.000000,,2013-03-06 00:32:00,
2013-03-05 19:42:00,35.0,28.0,-100.00,NE,54,2.0,5.0,74,0.00,,,0.00,0.000000,,2013-03-06 00:42:00,
2013-03-05 19:52:00,35.0,28.0,-100.00,NE,54,2.0,5.0,74,0.00,,,0.00,0.000000,,2013-03-06 00:52:00,
2013-03-05 20:02:00,35.0,28.0,-100.00,NE,54,2.0,5.0,74,0.00,,,0.00,0.000000,,2013-03-06 01:02:00,
2013-03-05 20:32:00,35.0,30.0,-100.00,North,2,2.0,10.0,81,0.00,,,-99.99,0.000000,,2013-03-06 01:32:00,
2013-03-05 20:42:00,35.0,30.0,-100.00,North,2,2.0,10.0,81,0.00,,,-99.99,0.000000,,2013-03-06 01:42:00,
2013-03-05 20:52:00,35.0,30.0,-100.00,North,2,2.0,10.0,81,0.00,,,-99.99,0.000000,,2013-03-06 01:52:00,
2013-03-05 21:01:00,35.0,30.0,-100.00,North,2,2.0,10.0,81,0.00,,,-99.99,0.000000,,2013-03-06 02:01:00,
2013-03-05 21:32:00,34.0,30.0,-100.00,WSW,238,0.0,2.0,86,0.00,,,0.00,0.000000,,2013-03-06 02:32:00,
2013-03-05 21:42:00,34.0,30.0,-100.00,WSW,238,0.0,2.0,86,0.00,,,0.00,0.000000,,2013-03-06 02:42:00,
2013-03-05 21:52:00,34.0,30.0,-100.00,WSW,238,0.0,2.0,86,0.00,,,0.00,0.000000,,2013-03-06 02:52:00,
2013-03-05 22:02:00,34.0,30.0,-100.00,WSW,238,0.0,2.0,86,0.00,,,0.00,0.000000,,2013-03-06 03:02:00,
2013-03-05 22:32:00,35.0,31.0,-100.00,ENE,60,3.0,4.0,85,0.00,,,0.00,0.000000,,2013-03-06 03:32:00,
2013-03-05 22:42:00,35.0,31.0,-100.00,ENE,60,3.0,4.0,85,0.00,,,0.00,0.000000,,2013-03-06 03:42:00,
2013-03-05 22:53:00,35.0,31.0,-100.00,ENE,60,3.0,4.0,85,0.00,,,0.00,0.000000,,2013-03-06 03:53:00,
2013-03-05 23:02:00,35.0,31.0,-100.00,ENE,60,3.0,4.0,85,0.00,,,0.00,0.000000,,2013-03-06 04:02:00,
2013-03-05 23:32:00,35.0,33.0,-100.00,NE,46,5.0,12.0,91,0.01,,,0.01,0.000000,,2013-03-06 04:32:00,
2013-03-05 23:42:00,35.0,33.0,-100.00,NE,46,5.0,12.0,91,0.01,,,0.01,0.000000,,2013-03-06 04:42:00,
2013-03-05 23:52:00,35.0,33.0,-100.00,NE,46,5.0,12.0,91,0.01,,,0.01,0.000000,,2013-03-06 04:52:00,